Regional Weather Roundup
Issued by NWS Charleston, SC

Current Version | Previous Version | Text Only | Print | Product List | Glossary Off
Versions: 1 2 3 4 5 6 7 8 9 10 11 12 13 14 15 16 17 18 19 20 21 22 23 24 25 26 27 28 29 30 31 32 33 34 35 36 37 38 39 40 41 42 43 44 45 46 47 48 49 50

000
ASUS42 KCHS 281012
RWRCHS

REGIONAL WEATHER ROUNDUP
NATIONAL WEATHER SERVICE CHARLESTON SC
600 AM EDT FRI AUG 28 2015

NOTE: "FAIR" INDICATES FEW OR NO CLOUDS BELOW 12,000 FEET WITH NO
SIGNIFICANT WEATHER AND/OR OBSTRUCTIONS TO VISIBILITY.

NOT ALL STATIONS ARE QUALITY CONTROLLED BY THE NATIONAL
WEATHER SERVICE. USE DATA WITH CAUTION...ESPECIALLY
DEWPOINT OBSERVATIONS.

SCZ027-030-031-034>040-042>050-281100-
...SOUTHEAST SOUTH CAROLINA...

CITY           SKY/WX    TMP DP  RH WIND       PRES   REMARKS
N CHARLESTON   MOCLDY    72  69  90 NE7       30.04R
WATERFRONT PRK   N/A     74  74 100 N12       30.01R
MOUNT PLEASANT CLOUDY    72  72 100 N5        30.04R FOG
JOHNS ISLAND     N/A     73  73 100 N7        30.03R FOG
PINOPOLIS        N/A     73  70  88 NE10      29.97R
MONCKS CORNER  FAIR      70  66  88 CALM      30.05R
SUMMERVILLE    PTSUNNY   72  72 100 N3        30.05R
BEAUFORT MCAS  CLOUDY    73  72  96 NE8       30.03S FOG
BEAUFORT ARPT  CLOUDY    73  73 100 NE8       30.03R FOG
HILTON HEAD IS NOT AVBL
WALTERBORO     CLOUDY    73  72  94 NE7       30.06R FOG
ALLENDALE      CLOUDY    72  70  94 CALM      30.05R FOG

...SOUTHERN MIDLANDS AND PEE DEE...

CITY           SKY/WX    TMP DP  RH WIND       PRES   REMARKS
GEORGETOWN     NOT AVBL
KINGSTREE      NOT AVBL
ORANGEBURG     CLEAR     69  66  90 NE3       30.07R
BARNWELL       CLOUDY    72  70  94 NE5       30.07R
AIKEN          FAIR      64  64 100 NE6       30.11R
MANNING        FAIR      66  64  94 NE3       30.06S
COLUMBIA       CLEAR     71  63  75 NE6       30.08R
SUMTER         CLEAR     66  63  90 NE7       30.06R
FLORENCE       PTCLDY    68  63  84 NE6       30.08R
MYRTLE BEACH   NOT AVBL
N MYRTLE BEACH PTCLDY    69  65  86 NE8       30.05R

$$

GAZ063-065-086>088-099>101-113>116-118-119-134>141-150-281100-
...SOUTHEAST GEORGIA...

CITY           SKY/WX    TMP DP  RH WIND       PRES   REMARKS
SAVANNAH ARPT  MOCLDY    73  71  93 NE7       30.02S
HUNTER AAF     PTCLDY    74  74 100 E5        30.00S
FORT STEWART   PTCLDY    73  71  94 CALM      30.00R
STATESBORO     CLOUDY    73  32  22 NE6       30.04R
SYLVANIA       CLOUDY    73  73 100 CALM      30.06R FOG
CLAXTON        NOT AVBL

...CSRA...CENTRAL AND FAR SOUTHEAST GEORGIA...

CITY           SKY/WX    TMP DP  RH WIND       PRES   REMARKS
THOMSON        CLOUDY    73  72  99 E3        30.12R
AUGUSTA-BUSH   CLOUDY    70  68  93 CALM      30.06R
AUGUSTA-DANIEL PTCLDY    71  68  90 E6        30.08R
SWAINSBORO     CLOUDY   N/A N/A N/A E8        30.05R
VIDALIA        CLEAR     72  70  94 NE7       30.03R
EASTMAN        PTSUNNY   73  73 100 E5        30.05R
HAZLEHURST     FAIR      75  75 100 E6        30.00R
ALMA           CLEAR     73  72  96 E7        30.00R
WAYCROSS       CLEAR     76  76 100 CALM      30.00R
JESUP          FAIR      75  73  94 E3        30.01R
BAXLEY         FAIR      73  73 100 E5        30.00S
BRUNSWICK      PTCLDY    73  72  94 NE5       30.01R
SAINT SIMONS   PTCLDY    80  72  76 SE3       30.00R

$$

SCZ027-028-034-036>038-045-046-048>050-GAZ119-141-281100-
...LAKE AND SUPPLEMENTAL COASTAL OBSERVATIONS...

STATION/POSITION TIME  TEMP    WIND        PRES    WAVE   SWELL
                       AIR SEA DIR/SP/G            HT/PER HT/PER/DIR
                 (UTC) (F)     (DEG/KT/KT) (MB)    (FT/S) (FT/S/D)
UPR LAKE MARION  NOT AVBL
WINYAH BAY       NOT AVBL
LAKE MURRAY      0900   71      50/  2/  6 1017.9S
ACE BASIN NERRS  NOT AVBL
FORT PULASKI     0900   77 85   10/  6/  9 1016.9R
SAPELO ISLAND    0900   74     160/  6     1016.0R

$$

ANZ835-935-AMZ111-154-330-350-352-354-370-450-454-472-281100-
...C-MAN AND BUOY OBSERVATIONS...

STATION/POSITION TIME  TEMP    WIND        PRES    WAVE   SWELL
                       AIR SEA DIR/SP/G            HT/PER HT/PER/DIR
                 (UTC) (F)     (DEG/KT/KT) (MB)    (FT/S) (FT/S/D)
BUOY 41004       0950   81 84   30/  8/ 10 1016.1R   3/ 9   3/ 9
BUOY 41008       0950   82 85  100/ 10/ 10 1016.1R   3/ 9   2/110/ 9
FOLLY BEACH CMAN 0900   74     360/  8/ 10 1016.5F
CAPERS NEARSHORE 0908   76      40/ 14/ 17 1016.7R
FRIPP NEARSHORE  0900   79      20/ 12/ 14 1016.0S


STATION/POSITION TIME  TEMP    WIND        PRES    WAVE   SWELL
                       AIR SEA DIR/SP/G            HT/PER HT/PER/DIR
                 (UTC) (F)     (DEG/KT/KT) (MB)    (FT/S) (FT/S/D)
5E ST. MARYS GA  0921      86                N/A     3/ 9
FRYING PAN BUOY  0950   80 81   40/ 10/ 12 1017.0R
BUOY 41025       0950   78 83   40/ 17/ 21 1017.2R   5/ 5   2/ 70/ 8
CAPE LOOKOUT NC  0900   77      40/ 18/ 21 1017.0F
BUOY 41002       0950   80 84  150/  4/  6 1016.5R   3/10   3/110/10
BUOY 41010       0920   82 85  200/  6/  8 1015.5F
ST AUGUSTINE FL  1000   77 85  210/  3/  4 1016.4R


$$


USA.gov is the U.S. government's official web portal to all federal, state and local government web resources and services.